Location: Godiavel Galaoual
(15.2485°N, 12.6604°W)
Time: 08:39:54
(UTC+00:00)

BUGSAT 1 - Pass Details

Date: 29 July 2021
Orbit: 558 x 601 km, 98.1° (Epoch: 27 September)

Event Time Altitude Azimuth Distance (km) Brightness Sun altitude
Rises 04:36:04 0° 28° (NNE) 2,815 ? -26.3°
Reaches altitude 10° 04:38:27 10° 40° (NE) 1,921 ? -25.8°
Maximum altitude 04:42:03 28° 100° (E) 1,123 ? -25.1°
Enters shadow 04:44:41 15° 151° (SSE) 1,606 ? -24.5°
